DELTA 1 DEB, 21471

Orbit data source: Space-Track

DELTA 1 DEB, 21471 is space debris in SSO originally from a launch on Thu, 12 Jun 1975 UTC launched from the Air Force Western Test Range (AFWTR). Debris objects in space refer to the collection of defunct objects orbiting the Earth. Examples of debris include non-operational satellites, rocket bodies, and fragments generated from explosions, collisions, or faulty payload assembly.

Loading next visibility...
Identifier
21471, 1975-052FF
Orbit
SSO
Country
Flag of USUS
Related business
Manufacturer
Unknown
Mission
Spacecraft
Bus & Motor
Unknown
Mass
Unknown
Launch date (UTC)
1975-06-12 (50 years ago)
Launch vehicle
Unknown
Launch site
Air Force Western Test Range (AFWTR)
Object type
Payload
Rocket body
Debris
Shape & HBR
Unknown shape, 0.1 m
Radar Cross Section
Small (<0.1 m²)

Expand to show TLE details & history
Last TLE update: 16 hours ago

TLE from 16 hours ago
0 DELTA 1 DEB
1 21471U 75052FF  25299.94570742  .00000821  00000-0  99115-3 0  9998
2 21471  99.9254  89.1905 0249136 212.8451 276.2975 13.57437299704802
Epoch: 2025-10-26T22:41Z
TLE epoch observation values (Epoch: 2025-10-26T22:41:49.121Z)
Latitude
52.65022°
Longitude
-93.63336°
Altitude
1,037.767 km
Speed
7.346 km/s
True Right ascension
18h 49m 30s
True Declination
52° 29' 26"
Sunlit
Object was in daylight at epoch
Visualization orbit readout
Latitude
Unknown
Longitude
Unknown
Altitude
Unknown
Speed
Unknown
Apparent Right ascension
Unknown
Apparent Declination
Unknown
Sunlit
N/A
Visualization observer readout
Local Sidereal Time
10:04:28
Azimuth
Unknown
Elevation
Unknown
Doppler factor
Unknown
Orbital elements
Apogee altitude
1,227.191 km
Perigee altitude
857.451 km
Semi-major axis
7,420.458 km
Eccentricity
0.02491
Inclination
99.9254°
RAAN
89.1905°
Arg. of periapsis
212.8451°
True anomaly
273.45129°
Mean anomaly
276.2975°
Eccentric anomaly
274.87522°
Mean motion
3.39545 °/min
Orbital period
106.02 mins
BSTAR
0.00099115
Loading maneuver chart data...
Computing Atmospheric mass density...
Loading historical data...
Loading historical data...
Loading historical data...
Loading historical data...
Loading historical data...
Loading historical data...
Loading historical data...

Documentation

Showing up to 5 results
|